Torna al catalogo

ONEWEB-0572

AttivoComunicazioniPO
NORAD 55151·PAYLOAD·🇬🇧 United Kingdom

Lanciato Jan 10, 2023 da Cape Canaveral Space Force Station

Loading…

Prossimi Passaggi (prossime 24 ore)

TLE

AggiornatoSource: CelesTrak SupGP

Epoca: Sep 14, 2026, 18:12 UTC

1 55151C 23004M   26257.75851112 -.00000190  00000+0 -49008-3 0  2570
2 55151  87.9202 348.0777 0001730 103.9656 323.4082 13.17651300    14

Traccia ONEWEB-0572 in tempo reale con AllMySat

Download on the App Store